Hourly Data Report for May 25, 2012

All times are specified in Local Standard Time (LST). Add 1 hour to adjust for Daylight Saving Time where and when it is observed.

DEER LAKE A
NEWFOUNDLAND

49°12'33.000" N
57°23'40.000" W
21.90 m
8401502
71809
YDF

Download Data

Hourly Data (May 2012)
Hourly Data Report for May 25, 2012
Temp Definition
°C
Dew Point Temp Definition
°C
Rel Hum Definition
%
Wind Dir Definition
10's deg

Wind Spd Definition
km/h
Visibility Definition
km
Stn Press Definition
kPa
Hmdx Definition


Wind Chill Definition


Weather Definition


TIME
00:30 Legend Double Dagger 8.8 5.7 81 25 9 10.0 102.25     LegendNANA
01:30 Legend Double Dagger 9.6 5.0 73 24 10 10.0 102.24     LegendNANA
02:30 Legend Double Dagger 9.4 5.4 76 22 13 10.0 102.24     Mostly Cloudy
03:30 Legend Double Dagger 8.5 4.5 76 17 5 10.0 102.23     LegendNANA
04:30 Legend Double Dagger 6.5 5.1 91   0 10.0 102.26     LegendNANA
05:30 Legend Double Dagger 10.7 4.9 67 23 18 10.0 102.19     Mainly Clear
06:30 Legend Double Dagger 12.7 5.2 60 22 22 10.0 102.18     LegendNANA
07:30 Legend Double Dagger 14.7 5.0 52 22 33 10.0 102.16     LegendNANA
08:30 Legend Double Dagger 16.3 5.1 47 21 35 10.0 102.12     Mostly Cloudy
09:30 Legend Double Dagger 18.5 5.8 43 22 33 10.0 102.07     LegendNANA
10:30 Legend Double Dagger 19.6 5.4 39 21 40 10.0 102.01     LegendNANA
11:30 Legend Double Dagger 21.0 4.7 34 22 42 10.0 101.95     Mostly Cloudy
12:30 Legend Double Dagger 21.7 4.0 31 22 40 10.0 101.90     LegendNANA
13:30 Legend Double Dagger 21.6 4.8 33 22 44 10.0 101.87     LegendNANA
14:30 Legend Double Dagger 21.3 5.4 35 22 33 10.0 101.81     Mainly Clear
15:30 Legend Double Dagger 21.5 5.2 34 22 37 10.0 101.72     LegendNANA
16:30 Legend Double Dagger 21.6 5.2 34 22 35 10.0 101.66     LegendNANA
17:30 Legend Double Dagger 21.4 5.5 35 26 15 10.0 101.62     Mostly Cloudy
18:30 Legend Double Dagger 20.1 4.7 36 28 11 10.0 101.61     LegendNANA
19:30 Legend Double Dagger 19.1 5.7 41 25 11 10.0 101.59     LegendNANA
20:30 Legend Double Dagger 15.4 5.4 51 18 7 10.0 101.61     Mostly Cloudy
21:30 Legend Double Dagger 16.5 4.3 44 24 17 10.0 101.56     LegendNANA
22:30 Legend Double Dagger 15.1 4.8 50 24 12 10.0 101.52     LegendNANA
23:30 Legend Double Dagger 14.7 4.2 49 28 12 10.0 101.47     Mostly Cloudy

Notes on Data Quality.

Legend

  • E = Estimated
  • M = Missing
  • NA = Not Available
  • ‡ = Partner data that is not subject to review by the National Climate Archives
Date modified: